SCP
0 0 0 0 0 0 1 1 1 1 1 1 1 1 0 0 0 0 0 0 0 0 0 0 0 0 0 0 0 0 0 0 0 0 0 0 0 0 0 0 0 0 0
0 0 0 0 0 1 1 1 1 1 1 1 1 1 0 0 0 0 0 0 0 0 0 0 0 0 0 0 0 0 0 0 0 0 0 0 0 0 0 0 0 0 0
0 0 0 0 0 1 1 1 1 1 1 1 1 1 0 0 0 0 0 0 0 0 0 0 0 0 0 0 0 0 0 0 0 0 0 0 0 0 0 0 0 0 0
0 0 0 0 1 1 1 1 1 1 1 1 1 0 0 0 0 0 0 0 0 0 0 0 0 0 0 0 0 0 0 0 0 0 0 0 0 0 0 0 0 0 0
0 0 1 1 1 1 1 1 1 1 1 1 1 0 0 0 0 0 0 0 0 0 0 0 0 0 0 0 0 0 0 0 0 0 0 0 0 0 0 0 0 0 0
0 1 1 1 1 1 1 1 1 1 1 1 1 0 0 0 0 0 0 0 0 0 0 0 0 0 0 0 0 0 0 0 0 0 0 0 0 0 0 0 0 0 0
1 1 1 1 1 1 1 1 1 1 1 1 1 0 0 0 0 0 0 0 0 0 0 0 0 0 0 0 0 0 0 0 0 0 0 0 0 0 0 0 0 0 0
1 1 1 1 1 1 1 1 1 1 1 1 1 0 0 0 0 0 0 0 0 0 0 0 0 0 0 0 0 0 0 0 0 0 0 0 0 0 0 0 0 0 0
1 1 1 1 1 1 1 1 1 1 1 1 1 1 0 0 0 0 0 0 0 0 0 0 0 0 0 0 0 0 0 0 0 0 0 0 0 0 0 0 0 0 0
1 1 1 1 1 1 1 1 1 1 1 1 1 1 0 0 0 0 0 0 0 0 0 0 0 0 0 0 0 0 0 0 0 0 0 0 0 0 0 0 0 0 0
1 1 1 1 0 0 0 0 0 0 0 0 0 0 0 0 0 0 0 0 0 0 0 0 0 0 0 0 0 0 0 0 0 0 0 0 0 0 0 0 0 0 0
1 1 1 0 0 0 0 0 0 0 0 0 0 0 0 0 0 0 0 0 0 0 0 0 0 0 0 0 0 0 0 0 0 0 0 0 0 0 0 0 0 0 0
1 1 1 0 0 0 0 0 0 0 0 0 0 0 0 0 0 0 0 0 0 0 0 0 0 0 0 0 0 0 0 0 0 0 0 0 0 0 0 0 0 0 0
1 1 1 1 1 0 0 0 0 0 0 0 0 0 0 0 0 0 0 0 0 0 0 0 0 0 0 0 0 0 0 0 0 0 0 0 0 0 0 0 0 0 0
1 1 1 1 1 1 1 0 0 0 0 0 0 0 0 0 0 0 0 0 0 0 0 0 0 0 0 0 0 0 0 0 0 0 0 0 0 0 0 0 0 0 0
1 1 1 1 1 1 1 1 0 0 0 0 0 0 0 0 0 0 0 0 0 0 0 0 0 0 0 0 0 0 0 0 0 0 0 0 0 0 0 0 0 0 0
2 2 2 2 2 2 1 1 1 1 1 1 0 0 0 0 0 0 0 0 0 0 0 0 0 0 0 0 0 0 0 0 0 0 0 0 0 0 0 0 0 0 0
2 2 2 2 3 3 2 2 1 1 1 1 1 0 0 0 0 0 0 0 0 0 0 0 0 0 0 0 0 0 0 0 0 0 0 0 0 0 0 0 0 0 0
1 2 2 3 3 3 4 3 3 2 1 1 1 1 0 0 0 0 0 0 0 0 0 0 0 0 0 0 0 0 0 0 0 0 0 0 0 0 0 0 0 0 0
1 1 2 3 3 3 4 4 4 3 3 2 2 1 1 0 0 0 0 0 0 0 0 0 0 0 0 0 0 0 0 0 0 0 0 0 0 0 0 0 0 0 0
0 0 1 2 3 3 4 5 5 4 4 3 3 2 2 1 1 0 0 0 0 0 0 0 0 0 0 0 0 0 0 0 0 0 0 0 0 0 0 0 0 0 0
0 0 0 1 2 3 4 4 4 4 4 4 4 4 3 2 1 1 0 0 0 0 0 0 0 0 0 0 0 0 0 0 0 0 0 0 0 0 0 0 0 0 0
0 0 0 0 1 2 3 4 4 4 5 5 5 5 4 3 2 1 1 0 0 0 0 0 0 0 0 0 0 0 0 0 0 0 0 0 0 0 0 0 0 0 0
0 0 0 0 0 2 3 3 4 4 4 5 6 6 6 5 4 2 1 0 0 0 0 0 0 0 0 0 0 0 0 0 0 0 0 0 0 0 0 0 0 0 0
0 0 0 0 0 1 2 3 3 3 3 4 5 6 6 6 5 3 2 1 0 0 0 0 0 0 0 0 0 0 0 0 0 0 0 0 0 0 0 0 0 0 0
0 0 0 0 0 0 1 2 2 3 3 3 4 5 6 6 5 4 2 1 0 0 0 0 0 0 0 0 0 0 0 0 0 0 0 0 0 0 0 0 0 0 0
Wind_Speed
5 7 14 16 16 15 16 16 16 16 15 15 14 14 13 12 10 9 8 7 6 6 8 10 11 12 13 13 13 12 12 11 11 10 9 9 8 8 9 8 7 4 7
8 9 14 15 16 16 16 16 16 15 15 14 14 13 12 11 9 8 7 6 5 6 8 11 12 12 13 13 12 12 11 10 9 8 7 6 6 7 7 6 5 3 5
11 10 13 15 15 15 16 16 16 15 14 14 13 12 11 10 9 8 7 6 5 6 9 11 12 12 12 12 12 11 10 9 8 6 5 3 3 5 6 5 4 4 4
11 9 11 15 16 16 16 16 16 15 14 13 12 11 10 10 9 8 7 7 7 8 9 11 12 12 12 11 11 10 9 8 7 6 3 2 3 2 5 4 3 3 3
9 8 11 15 16 16 16 16 16 15 14 13 12 11 10 10 9 8 8 8 9 10 11 12 13 12 11 10 9 9 8 7 6 5 2 2 3 2 5 5 4 3 3
8 7 10 15 16 16 15 15 15 15 15 14 13 12 11 10 9 9 9 9 10 11 12 12 12 11 10 9 8 7 7 7 6 3 2 2 2 3 7 7 6 6 5
8 7 10 14 15 15 15 15 15 15 15 14 13 12 11 10 10 10 9 10 10 11 11 11 10 9 8 8 7 7 7 7 5 3 2 2 2 5 8 9 10 10 11
9 7 9 13 13 14 14 14 14 14 14 14 14 12 11 11 11 10 10 9 9 9 9 9 8 8 7 7 6 6 7 6 5 3 1 2 2 7 10 11 12 13 14
8 7 7 8 9 11 12 12 13 13 13 13 13 12 11 10 11 10 9 9 9 8 8 7 7 7 6 6 6 6 6 7 4 2 2 2 3 8 10 12 12 13 13
7 6 6 7 7 6 7 11 11 11 11 12 12 10 10 10 10 10 8 7 7 7 6 6 6 6 6 6 6 7 7 6 4 3 2 1 5 10 11 11 12 12 12
10 7 6 6 6 6 6 8 9 10 10 10 9 11 9 5 5 6 5 5 6 6 6 6 6 6 7 7 8 8 7 3 3 2 1 2 7 10 10 10 11 11 11
14 12 8 7 7 6 6 5 4 4 6 5 5 6 5 4 4 5 5 6 6 5 4 5 6 7 6 4 5 6 3 4 3 2 1 4 9 10 10 10 10 10 10
13 12 11 9 7 7 5 4 3 3 3 4 6 6 5 4 3 3 2 2 2 3 2 3 4 3 3 3 3 3 3 3 2 1 1 6 9 10 10 9 9 9 9
12 13 12 11 8 7 5 5 4 4 4 4 5 6 5 3 3 3 3 3 2 2 3 3 3 3 4 4 4 4 4 2 2 1 2 7 9 9 9 8 8 8 7
11 12 12 12 11 8 6 5 6 5 5 5 5 6 6 5 5 4 3 3 3 3 3 3 3 4 4 4 3 4 4 3 3 3 2 7 9 9 8 8 7 7 7
12 12 11 12 12 10 9 7 6 6 6 6 6 7 8 6 6 5 4 4 4 3 3 4 4 4 3 3 4 4 4 3 3 3 3 4 8 9 8 7 7 6 6
10 11 12 13 13 13 11 10 7 7 7 7 7 8 9 8 7 6 5 5 4 4 5 4 4 3 3 3 3 3 3 3 3 3 3 2 3 6 7 7 6 6 6
8 10 12 12 13 15 13 11 8 8 8 8 7 8 10 10 9 7 6 6 5 5 5 5 4 4 3 3 3 2 2 2 3 3 2 2 2 2 3 5 5 5 5
9 9 11 12 13 15 15 11 10 8 9 8 8 8 10 11 11 8 7 6 7 5 5 5 3 3 3 3 3 2 2 2 2 3 3 2 2 2 2 3 5 4 4
8 8 9 11 12 12 11 9 7 8 8 8 8 9 11 11 12 10 7 8 8 6 5 5 4 3 3 4 3 3 2 1 1 2 3 2 2 2 2 3 3 3 4
6 7 8 9 11 9 8 10 11 12 11 10 11 12 12 11 12 11 8 9 9 8 9 8 5 4 3 3 4 2 1 1 1 1 1 2 2 2 2 2 2 1 2
5 6 7 8 9 9 9 9 8 9 8 10 8 9 11 12 13 12 12 10 10 8 9 9 6 5 3 3 4 3 1 1 1 1 1 2 2 2 2 3 2 1 1
5 5 6 7 8 9 9 6 4 4 3 5 7 9 12 13 13 13 13 12 12 11 11 12 10 9 6 3 2 4 5 5 2 0 0 1 2 2 2 2 2 1 1
5 4 5 6 6 7 7 7 9 10 10 11 10 10 11 13 14 14 13 13 13 11 11 12 10 6 7 5 2 1 1 3 4 2 1 0 1 2 2 2 1 1 1
4 3 3 4 5 5 6 8 10 11 10 7 7 8 10 10 11 12 12 12 12 10 10 10 9 8 5 6 5 4 3 2 2 3 3 2 1 1 2 2 2 2 2
5 5 4 4 5 4 5 7 10 12 11 8 8 10 9 7 8 10 10 10 10 9 10 10 9 9 6 6 5 4 4 4 4 3 3 2 2 1 1 1 2 2 2
Wind_Direction
173 166 166 161 159 156 153 148 142 137 132 129 126 125 124 123 121 122 124 128 136 146 147 138 130 119 109 102 97 94 90 85 81 77 67 60 68 85 88 85 71 53 74
150 159 161 158 157 155 152 148 142 138 135 132 129 128 126 125 123 123 130 138 144 150 150 142 131 118 108 102 100 98 93 88 84 82 69 46 47 83 90 91 87 83 78
144 157 157 155 154 153 150 146 142 141 138 136 133 131 130 128 128 127 131 136 141 141 139 138 126 113 106 103 101 98 93 86 84 88 78 42 28 92 98 97 95 88 83
146 152 153 153 153 152 149 147 147 146 144 141 139 137 137 135 133 129 125 125 122 123 123 122 119 110 106 105 104 98 90 83 89 93 76 31 345 80 104 102 91 83 70
144 148 153 153 154 153 152 152 153 152 150 148 146 144 143 141 139 131 119 115 114 114 115 113 112 110 109 108 105 97 88 85 93 89 76 22 341 58 92 82 73 73 64
139 144 154 154 155 155 155 157 158 157 156 153 151 149 147 145 143 135 120 113 113 116 118 116 115 113 111 111 107 95 87 90 90 85 67 3 332 61 81 74 68 61 60
139 143 154 154 157 159 161 162 163 163 160 158 155 153 151 147 141 137 130 124 122 122 121 121 119 116 115 115 108 96 92 100 101 95 62 353 334 74 74 68 65 65 64
143 145 155 155 157 162 166 167 169 169 166 163 161 158 154 148 143 143 141 138 135 131 128 126 124 121 119 114 106 97 98 101 102 96 62 359 21 74 74 70 67 66 63
142 145 151 153 157 164 168 171 173 174 171 169 167 161 154 149 149 150 150 149 146 140 133 131 129 124 116 105 99 100 105 106 102 92 59 9 56 82 79 76 70 65 62
150 153 154 151 153 160 168 174 175 175 172 173 170 160 153 152 155 158 158 158 152 146 140 136 132 119 102 93 94 100 102 96 95 80 42 18 82 87 82 75 71 68 63
171 170 164 160 160 160 164 175 173 174 174 174 170 159 151 149 153 159 165 166 157 153 151 145 131 108 89 79 90 96 91 89 96 77 39 80 95 91 85 79 74 70 66
185 185 178 173 169 164 173 167 165 166 168 165 157 154 147 149 157 158 173 175 166 158 155 145 117 100 89 75 78 85 82 91 86 74 67 103 104 97 90 84 79 73 67
188 190 190 185 178 174 173 164 164 160 159 159 160 157 151 151 153 152 149 164 155 135 102 92 83 84 93 99 94 90 94 86 77 55 67 108 110 106 99 92 84 75 67
193 198 197 192 188 185 179 175 171 170 170 170 170 164 157 159 163 161 162 160 146 129 125 107 103 102 100 101 108 107 100 93 83 61 85 108 115 113 107 99 89 78 69
204 203 203 198 197 192 187 185 185 185 184 180 175 175 171 172 175 173 172 167 160 146 144 136 127 122 114 108 109 116 114 106 97 77 68 106 113 116 112 103 91 79 69
211 210 206 206 202 197 197 196 192 192 190 186 187 184 181 180 179 177 176 176 172 163 155 149 144 134 125 120 113 114 118 115 106 95 73 94 114 118 116 107 94 78 63
212 213 210 210 205 203 203 202 199 196 194 197 196 191 190 187 184 183 182 184 180 160 146 132 126 118 120 118 115 118 119 123 124 114 98 78 92 111 119 112 100 84 63
213 211 213 211 207 208 208 205 203 199 199 202 199 196 197 194 188 185 187 189 172 156 150 146 140 125 129 132 130 121 118 129 135 132 113 104 88 79 101 117 105 86 58
220 215 213 210 208 209 209 207 205 200 204 204 200 202 200 198 193 189 191 184 166 160 160 158 146 141 149 147 137 115 109 133 152 150 146 136 121 108 80 98 89 75 46
227 223 219 214 214 210 207 205 204 206 208 206 206 207 200 198 193 190 188 178 168 164 165 162 147 125 132 142 122 96 73 102 142 165 172 156 148 135 112 86 68 38 24
234 228 224 219 218 207 200 204 207 212 212 210 211 209 203 198 192 191 187 178 176 179 178 165 144 138 132 141 117 95 42 54 125 164 170 162 169 155 134 120 103 67 359
233 230 229 226 223 211 207 206 208 209 213 213 209 206 202 199 194 193 188 184 183 177 172 172 155 144 142 166 147 136 180 300 270 107 165 177 177 155 151 143 128 102 21
247 236 234 230 228 221 214 204 194 189 196 200 204 207 204 200 197 196 192 185 185 181 183 183 175 159 155 171 180 156 163 207 199 301 4 144 167 162 160 149 137 114 77
266 258 248 244 238 231 217 205 201 206 212 212 210 209 202 199 198 197 192 189 186 186 185 185 179 167 148 158 161 109 111 140 152 184 261 264 201 185 189 179 146 155 127
314 306 286 272 261 249 230 216 212 218 221 216 207 205 202 198 197 196 191 189 187 188 184 177 172 170 162 157 157 150 135 87 114 151 193 223 255 220 216 207 193 178 143
349 341 327 308 285 269 246 231 222 222 220 210 205 206 202 194 193 193 188 189 187 183 178 175 172 169 159 147 146 148 153 155 165 158 163 184 231 276 276 247 206 181 169